When you browse on this site, cookies collect data to enhance your experience and personalize the content and advertising you see.
Visit our Privacy Policy to learn more. By continuing to use the site, you agree to this use of cookies and data.

Hourly Weather Saurimo

Today, 4 July, Saturday

Time Temperature Precipitation Wind Pressure Humidity
00:00 +16°C° 0 mm 2 mps 671 mmHg 45%
01:00 +15°C° 0 mm 2 mps 670 mmHg 46%
02:00 +15°C° 0 mm 2 mps 670 mmHg 47%
03:00 +14°C° 0 mm 2 mps 670 mmHg 48%
04:00 +14°C° 0 mm 2 mps 670 mmHg 49%
05:00 +13°C° 0 mm 3 mps 671 mmHg 46%
06:00 +14°C° 0 mm 3 mps 671 mmHg 44%
07:00 +14°C° 0 mm 3 mps 672 mmHg 41%
08:00 +18°C° 0 mm 4 mps 672 mmHg 35%
09:00 +22°C° 0 mm 4 mps 673 mmHg 29%
10:00 +26°C° 0 mm 4 mps 673 mmHg 23%
11:00 +27°C° 0 mm 4 mps 673 mmHg 22%
12:00 +29°C° 0 mm 4 mps 673 mmHg 21%
13:00 +30°C° 0 mm 3 mps 672 mmHg 19%
14:00 +30°C° 0 mm 3 mps 672 mmHg 20%
15:00 +30°C° 0 mm 3 mps 671 mmHg 20%
16:00 +30°C° 0 mm 3 mps 671 mmHg 20%
17:00 +27°C° 0 mm 2 mps 670 mmHg 25%
18:00 +24°C° 0 mm 2 mps 670 mmHg 30%
19:00 +20°C° 0 mm 2 mps 670 mmHg 35%
20:00 +19°C° 0 mm 2 mps 670 mmHg 36%
21:00 +18°C° 0 mm 2 mps 670 mmHg 38%
22:00 +17°C° 0 mm 2 mps 670 mmHg 39%
23:00 +16°C° 0 mm 2 mps 670 mmHg 40%

Tomorrow, 5 July, Sunday

Time Temperature Precipitation Wind Pressure Humidity
00:00 +15°C° 0 mm 2 mps 670 mmHg 41%
01:00 +14°C° 0 mm 2 mps 670 mmHg 42%
02:00 +14°C° 0 mm 2 mps 669 mmHg 42%
03:00 +14°C° 0 mm 2 mps 669 mmHg 41%
04:00 +14°C° 0 mm 2 mps 669 mmHg 41%
05:00 +13°C° 0 mm 3 mps 670 mmHg 40%
06:00 +14°C° 0 mm 3 mps 671 mmHg 40%
07:00 +14°C° 0 mm 4 mps 671 mmHg 39%
08:00 +19°C° 0 mm 4 mps 672 mmHg 34%
09:00 +22°C° 0 mm 4 mps 673 mmHg 29%
10:00 +26°C° 0 mm 4 mps 673 mmHg 23%
11:00 +28°C° 0 mm 4 mps 673 mmHg 21%
12:00 +29°C° 0 mm 3 mps 672 mmHg 19%
13:00 +31°C° 0 mm 3 mps 672 mmHg 16%
14:00 +31°C° 0 mm 2 mps 671 mmHg 16%
15:00 +31°C° 0 mm 2 mps 671 mmHg 16%
16:00 +30°C° 0 mm 2 mps 670 mmHg 16%
17:00 +27°C° 0 mm 2 mps 670 mmHg 21%
18:00 +24°C° 0 mm 2 mps 670 mmHg 25%
19:00 +20°C° 0 mm 2 mps 669 mmHg 29%
20:00 +19°C° 0 mm 2 mps 670 mmHg 30%
21:00 +18°C° 0 mm 2 mps 670 mmHg 31%
22:00 +17°C° 0 mm 2 mps 670 mmHg 33%
23:00 +16°C° 0 mm 2 mps 670 mmHg 33%

Day after tomorrow, 6 July, Monday

Time Temperature Precipitation Wind Pressure Humidity
00:00 +15°C° 0 mm 2 mps 670 mmHg 34%
01:00 +15°C° 0 mm 2 mps 669 mmHg 35%
02:00 +14°C° 0 mm 2 mps 669 mmHg 35%
03:00 +14°C° 0 mm 2 mps 669 mmHg 36%
04:00 +12°C° 0 mm 3 mps 669 mmHg 37%
05:00 +13°C° 0 mm 3 mps 670 mmHg 36%
06:00 +13°C° 0 mm 3 mps 670 mmHg 35%
07:00 +14°C° 0 mm 4 mps 671 mmHg 33%
08:00 +19°C° 0 mm 4 mps 671 mmHg 30%
09:00 +22°C° 0 mm 4 mps 672 mmHg 26%
10:00 +27°C° 0 mm 4 mps 673 mmHg 22%
11:00 +28°C° 0 mm 3 mps 672 mmHg 20%
12:00 +30°C° 0 mm 3 mps 672 mmHg 17%
13:00 +32°C° 0 mm 2 mps 672 mmHg 15%
14:00 +31°C° 0 mm 2 mps 671 mmHg 15%
15:00 +31°C° 0 mm 2 mps 671 mmHg 15%
16:00 +31°C° 0 mm 2 mps 670 mmHg 15%
17:00 +28°C° 0 mm 2 mps 670 mmHg 19%
18:00 +24°C° 0 mm 2 mps 669 mmHg 23%
19:00 +20°C° 0 mm 2 mps 669 mmHg 27%
20:00 +19°C° 0 mm 2 mps 669 mmHg 28%
21:00 +19°C° 0 mm 2 mps 670 mmHg 28%
22:00 +18°C° 0 mm 2 mps 670 mmHg 29%
23:00 +17°C° 0 mm 2 mps 670 mmHg 29%

7 July, Tuesday

Time Temperature Precipitation Wind Pressure Humidity
00:00 +16°C° 0 mm 2 mps 670 mmHg 29%
01:00 +16°C° 0 mm 2 mps 669 mmHg 29%
02:00 +15°C° 0 mm 2 mps 669 mmHg 30%
03:00 +14°C° 0 mm 2 mps 669 mmHg 31%
04:00 +14°C° 0 mm 2 mps 669 mmHg 32%
05:00 +13°C° 0 mm 3 mps 669 mmHg 32%
06:00 +14°C° 0 mm 3 mps 670 mmHg 31%
07:00 +16°C° 0 mm 3 mps 670 mmHg 31%
08:00 +19°C° 0 mm 4 mps 671 mmHg 27%
09:00 +23°C° 0 mm 4 mps 672 mmHg 23%
10:00 +28°C° 0 mm 4 mps 672 mmHg 19%
11:00 +30°C° 0 mm 3 mps 672 mmHg 17%
12:00 +31°C° 0 mm 3 mps 671 mmHg 15%
13:00 +32°C° 0 mm 2 mps 671 mmHg 13%
14:00 +32°C° 0 mm 2 mps 670 mmHg 13%
15:00 +32°C° 0 mm 2 mps 670 mmHg 13%
16:00 +32°C° 0 mm 1 mps 669 mmHg 13%
17:00 +28°C° 0 mm 1 mps 669 mmHg 16%
18:00 +25°C° 0 mm 1 mps 669 mmHg 20%
19:00 +22°C° 0 mm 1 mps 669 mmHg 23%
20:00 +21°C° 0 mm 1 mps 669 mmHg 25%
21:00 +19°C° 0 mm 2 mps 669 mmHg 26%
22:00 +18°C° 0 mm 2 mps 669 mmHg 28%
23:00 +17°C° 0 mm 2 mps 669 mmHg 29%

8 July, Wednesday

Time Temperature Precipitation Wind Pressure Humidity
00:00 +17°C° 0 mm 2 mps 669 mmHg 30%
01:00 +16°C° 0 mm 2 mps 669 mmHg 30%
02:00 +16°C° 0 mm 2 mps 669 mmHg 31%
03:00 +15°C° 0 mm 2 mps 669 mmHg 31%
04:00 +15°C° 0 mm 2 mps 669 mmHg 31%
05:00 +15°C° 0 mm 2 mps 669 mmHg 30%
06:00 +16°C° 0 mm 3 mps 670 mmHg 30%
07:00 +16°C° 0 mm 3 mps 670 mmHg 29%
08:00 +20°C° 0 mm 3 mps 671 mmHg 25%
09:00 +25°C° 0 mm 3 mps 672 mmHg 21%
10:00 +29°C° 0 mm 3 mps 673 mmHg 17%
11:00 +31°C° 0 mm 2 mps 673 mmHg 15%
12:00 +35°C° 0 mm 2 mps 672 mmHg 13%
13:00 +36°C° 0 mm 1 mps 672 mmHg 11%
14:00 +36°C° 0 mm 1 mps 672 mmHg 11%
15:00 +33°C° 0 mm 0 mps 671 mmHg 12%
16:00 +32°C° 0 mm 0 mps 670 mmHg 12%
17:00 +28°C° 0 mm 0 mps 670 mmHg 15%
18:00 +27°C° 0 mm 1 mps 670 mmHg 19%
19:00 +23°C° 0 mm 1 mps 669 mmHg 22%
20:00 +22°C° 0 mm 1 mps 669 mmHg 24%
21:00 +21°C° 0 mm 1 mps 670 mmHg 25%
22:00 +20°C° 0 mm 1 mps 670 mmHg 27%
23:00 +19°C° 0 mm 1 mps 669 mmHg 28%

9 July, Thursday

Time Temperature Precipitation Wind Pressure Humidity
00:00 +18°C° 0 mm 2 mps 669 mmHg 29%
01:00 +17°C° 0 mm 2 mps 669 mmHg 29%
02:00 +16°C° 0 mm 1 mps 669 mmHg 31%
03:00 +15°C° 0 mm 1 mps 669 mmHg 32%
04:00 +15°C° 0 mm 1 mps 669 mmHg 33%
05:00 +15°C° 0 mm 1 mps 669 mmHg 32%
06:00 +16°C° 0 mm 1 mps 670 mmHg 31%
07:00 +16°C° 0 mm 2 mps 670 mmHg 30%
08:00 +21°C° 0 mm 2 mps 671 mmHg 26%
09:00 +26°C° 0 mm 3 mps 672 mmHg 22%
10:00 +30°C° 0 mm 3 mps 673 mmHg 17%
11:00 +33°C° 0 mm 3 mps 672 mmHg 15%
12:00 +35°C° 0 mm 2 mps 672 mmHg 14%
13:00 +37°C° 0 mm 2 mps 672 mmHg 12%
14:00 +36°C° 0 mm 2 mps 671 mmHg 12%
15:00 +35°C° 0 mm 1 mps 671 mmHg 12%
16:00 +34°C° 0 mm 1 mps 670 mmHg 13%
17:00 +31°C° 0 mm 1 mps 670 mmHg 16%
18:00 +28°C° 0 mm 1 mps 669 mmHg 19%
19:00 +24°C° 0 mm 1 mps 669 mmHg 23%
20:00 +23°C° 0 mm 1 mps 669 mmHg 24%
21:00 +22°C° 0 mm 1 mps 669 mmHg 26%
22:00 +21°C° 0 mm 1 mps 669 mmHg 27%
23:00 +21°C° 0 mm 1 mps 669 mmHg 28%
Show more